Temperature
20 20 19 19 19 18 18 18 18 18 18 17 17 17 17 17 17 17 17 17 17 17 17 17 17 17 17 17 17 17 16 16 16 16 16 16 16 16 16 16 15 15 15
20 19 19 19 18 18 18 18 18 17 17 17 17 17 17 17 17 17 17 17 17 17 16 16 16 16 16 16 16 16 16 16 16 16 16 16 16 15 15 15 15 15 15
19 19 19 18 18 18 18 17 17 17 17 17 17 17 17 17 17 17 17 17 16 16 16 16 16 16 16 16 16 16 16 16 15 15 15 15 15 15 15 15 15 15 15
19 19 19 18 18 17 17 17 17 17 17 17 17 17 17 17 16 16 16 16 16 16 16 16 16 16 16 16 16 15 15 15 15 15 15 15 15 15 15 15 14 15 14
19 19 18 18 18 17 17 17 17 17 17 17 17 17 17 16 16 16 16 16 16 16 16 16 16 16 15 15 15 15 15 15 15 15 14 14 14 14 14 14 14 14 14
19 18 18 18 18 17 17 17 17 17 16 16 16 16 16 16 16 16 16 16 16 16 16 16 16 15 15 15 15 15 14 14 14 14 14 14 14 14 14 14 14 14 13
18 18 18 17 17 17 17 17 17 16 16 16 16 16 16 16 16 16 16 16 15 15 15 15 15 15 15 15 15 14 14 14 14 14 14 14 14 14 14 13 13 13 13
18 18 17 17 17 17 17 16 16 16 16 16 16 16 16 16 15 15 15 15 15 15 15 15 15 15 14 14 14 14 14 14 14 13 13 13 13 13 13 13 13 13 13
18 17 17 17 17 16 16 16 16 16 16 16 16 15 15 15 15 15 15 15 15 15 15 14 14 14 14 14 14 14 14 14 13 13 13 13 13 13 13 13 13 13 13
17 17 17 17 16 16 16 16 16 16 15 15 15 15 15 15 15 15 15 15 15 14 14 14 14 14 14 14 14 13 13 13 13 13 13 13 12 12 12 12 12 12 12
17 17 17 16 16 16 16 16 15 15 15 15 15 15 15 15 14 14 14 14 14 14 14 14 14 14 13 13 13 13 13 13 13 12 13 13 13 12 12 12 12 12 12
17 16 16 16 16 16 15 15 15 15 15 15 15 14 14 14 14 14 14 14 14 14 14 13 13 13 13 13 13 13 13 12 12 12 12 12 12 12 12 12 12 12 12
16 16 16 15 15 15 15 15 15 15 14 14 14 14 14 14 14 14 14 14 14 13 13 13 13 13 13 13 13 13 12 12 12 12 12 12 12 12 12 12 12 12 12
16 16 15 15 15 15 15 15 15 14 14 14 14 14 14 14 14 14 13 13 13 13 13 13 13 12 12 12 12 12 12 12 12 12 12 12 12 11 11 11 11 11 11
16 15 15 15 15 15 15 14 14 14 14 14 14 13 13 13 13 13 13 13 13 13 12 12 12 12 12 12 12 12 12 12 11 11 11 11 11 11 11 11 11 11 11
15 15 14 14 14 14 14 14 14 14 13 13 13 13 13 13 13 13 13 13 12 12 12 12 12 12 12 12 11 11 11 11 11 11 11 11 11 10 10 10 10 10 10
14 14 14 14 14 14 14 13 13 13 13 13 13 13 13 13 13 13 12 12 12 12 12 11 11 11 11 11 11 11 11 11 11 11 10 10 10 10 10 10 10 10 10
14 14 14 14 14 14 13 13 13 13 13 12 12 12 12 12 12 12 12 12 12 11 11 11 11 11 11 11 11 11 10 11 10 10 10 10 10 10 10 10 9 9 9
14 14 14 13 13 13 13 13 13 13 12 12 12 12 12 12 12 12 11 11 11 11 11 11 10 10 10 10 10 10 10 10 10 10 10 9 9 9 9 9 9 9 9
13 13 13 13 13 13 13 12 12 12 12 12 12 12 12 12 11 11 11 11 11 11 10 10 10 10 10 10 10 10 10 10 9 9 9 9 9 9 9 9 9 9 8
13 13 13 13 12 12 12 12 12 12 12 12 11 11 11 11 11 11 11 10 10 10 10 10 10 9 9 9 9 9 9 9 9 9 9 9 9 9 8 8 8 8 8
12 12 12 12 12 12 12 12 12 12 11 11 11 11 11 11 10 10 10 10 10 10 10 9 9 9 9 9 9 9 9 9 8 8 8 8 8 8 8 8 8 8 7
12 12 12 12 12 12 12 12 11 11 11 11 11 11 11 10 10 10 10 10 9 9 9 9 9 9 9 8 8 8 8 8 8 8 8 8 8 8 7 7 7 7 7
12 12 12 12 12 11 11 11 11 11 11 11 11 10 10 10 10 10 9 9 9 9 9 9 8 8 8 8 8 8 8 8 8 8 7 7 7 7 7 7 7 7 7
12 12 12 12 11 11 11 11 11 11 11 10 10 10 10 10 10 9 9 9 9 9 8 8 8 8 8 8 8 7 7 7 7 7 7 7 7 7 7 7 6 6 6
12 12 12 11 11 11 11 11 11 10 10 10 10 10 10 9 9 9 9 9 8 8 8 8 8 8 8 7 7 7 7 7 7 7 7 7 6 6 6 6 6 6 6
Wind_Speed
6 5 4 4 4 4 4 4 3 2 2 2 2 2 2 1 1 1 1 0 0 1 1 0 1 1 0 1 1 1 1 2 2 2 2 1 1 1 2 4 5 5 7
6 5 4 3 2 3 3 3 3 2 2 3 2 2 2 2 2 2 2 1 1 1 1 1 1 1 0 0 1 1 1 2 3 2 1 1 2 2 2 2 3 4 6
5 5 4 3 2 2 2 2 1 2 2 2 2 3 3 2 2 3 3 2 2 2 2 1 1 1 0 0 0 1 1 0 1 2 1 1 1 1 1 2 2 2 4
5 5 4 3 3 3 3 2 2 2 3 3 2 3 3 2 2 2 2 2 1 1 2 2 1 2 2 2 1 1 1 0 1 1 0 1 1 1 0 1 2 2 2
5 4 4 3 3 2 3 3 2 2 3 2 2 2 2 2 1 2 2 2 2 2 1 1 1 1 2 1 1 2 1 1 1 1 0 1 1 1 1 1 2 2 2
5 4 3 3 2 2 2 3 3 2 1 1 2 2 1 1 1 2 2 2 2 2 2 1 1 1 1 0 1 2 3 3 2 2 1 2 3 2 2 1 1 1 2
4 4 4 3 2 2 2 2 2 2 2 1 2 2 2 2 1 1 1 2 2 2 2 2 1 0 0 0 1 1 1 2 4 4 3 4 3 4 2 2 2 2 3
4 4 4 3 3 2 2 2 2 1 2 2 2 2 2 2 2 2 2 1 1 1 2 2 2 1 1 1 0 1 1 2 3 3 4 5 5 4 4 4 4 2 2
3 3 3 3 3 3 2 2 2 1 1 1 2 2 2 2 2 2 2 1 1 1 1 1 1 1 2 0 1 1 2 3 4 3 4 5 5 4 3 1 1 1 2
3 3 3 4 4 3 3 2 1 1 1 1 1 1 2 1 1 1 3 2 1 0 0 1 1 0 0 1 2 2 2 4 3 3 4 4 4 4 3 3 4 3 2
2 2 2 3 3 3 3 2 2 2 1 1 2 1 1 0 0 1 2 2 2 1 0 1 2 2 2 2 2 3 5 4 2 2 3 3 3 2 3 3 3 4 3
2 1 1 2 2 2 3 2 2 2 2 2 1 1 1 1 0 1 2 2 2 2 1 2 2 3 3 3 2 3 4 2 1 1 2 3 3 3 3 3 4 4 4
2 1 1 1 2 2 3 2 2 2 2 2 1 0 1 1 1 1 1 1 0 1 1 2 2 2 2 2 4 4 2 1 1 2 3 3 3 4 3 2 2 2 3
2 1 1 2 1 2 2 2 2 2 2 2 2 1 0 1 1 1 1 1 1 1 1 2 3 2 1 2 3 2 1 1 1 2 3 3 2 2 1 1 2 1 1
2 2 1 1 1 1 1 1 2 2 4 4 3 3 2 1 2 2 1 1 1 1 1 2 3 2 3 3 2 2 2 1 1 2 2 2 2 2 2 1 1 1 1
2 1 1 1 1 1 2 2 4 2 2 3 4 4 2 2 1 0 0 1 1 3 4 2 1 1 1 2 2 2 2 2 2 2 2 2 2 2 2 2 0 1 2
2 2 1 1 1 1 2 2 1 3 4 2 2 2 2 1 1 1 0 1 2 5 3 0 1 1 2 2 2 2 2 2 1 1 1 2 2 2 2 2 2 2 2
1 1 1 1 2 2 2 2 3 2 1 1 2 1 0 1 1 1 2 4 3 2 0 1 2 2 2 2 2 2 2 2 1 1 1 1 1 2 2 2 2 2 3
1 1 1 1 1 2 2 2 2 2 2 1 1 2 1 1 2 1 3 2 1 1 1 2 2 2 2 2 2 1 1 1 1 1 1 2 2 2 2 3 3 3 3
0 1 1 1 1 1 1 2 2 2 2 1 1 1 1 2 1 1 0 1 1 1 1 2 2 2 2 2 1 1 1 1 2 2 2 2 2 2 3 4 3 3 3
1 1 2 1 1 1 1 2 2 2 2 2 2 2 4 2 2 1 1 1 2 2 2 2 2 2 2 2 1 1 1 1 2 2 2 2 2 2 3 3 3 3 3
1 1 1 2 2 2 2 2 2 2 2 2 2 1 3 2 2 2 2 2 2 2 2 2 1 2 2 2 1 1 1 1 2 2 3 3 2 2 3 3 3 2 3
2 2 1 1 1 2 1 1 2 2 2 2 2 2 2 2 2 3 3 2 2 1 1 1 1 1 1 1 1 0 1 2 3 3 3 2 2 2 2 3 3 4 4
1 1 1 1 1 1 1 1 1 2 2 2 2 2 2 2 2 2 2 2 1 1 1 0 0 0 0 1 1 1 1 2 2 2 2 2 2 3 3 3 4 4 4
1 1 1 1 2 2 2 1 1 1 1 2 2 2 2 2 2 2 2 2 2 2 1 0 0 0 1 1 1 2 3 3 4 4 3 2 2 3 3 3 4 4 4
1 1 1 1 1 2 2 2 2 1 1 1 2 2 2 2 2 2 1 1 1 1 0 0 1 1 1 1 1 2 4 5 5 5 4 2 2 3 3 4 5 5 5
Wind_Direction
177 176 179 183 186 183 181 193 199 196 179 171 176 176 181 187 187 165 202 53 198 274 288 269 280 287 4 342 101 120 143 154 190 262 269 296 236 233 205 213 220 216 222
170 166 175 177 179 187 198 204 193 185 188 190 180 175 190 196 198 195 210 228 214 237 258 253 265 276 313 8 85 146 172 171 171 220 282 303 262 245 232 220 223 226 225
153 155 164 169 170 188 201 207 208 203 199 189 172 185 201 207 209 213 212 220 214 220 218 209 235 186 228 237 166 178 225 213 154 173 243 270 286 299 306 279 257 250 233
155 160 164 171 179 190 184 179 197 225 213 206 191 193 202 203 209 218 196 191 205 222 209 195 198 182 195 194 166 200 193 113 126 144 226 295 298 302 46 292 300 281 261
155 161 182 185 171 170 175 186 205 227 216 204 186 188 201 196 214 206 199 200 213 236 243 214 190 150 144 159 173 188 167 146 142 137 223 335 312 323 273 252 259 283 285
164 176 178 168 165 174 177 186 190 200 215 187 178 172 183 220 248 197 188 203 206 211 228 250 234 97 88 120 136 164 169 169 179 182 207 221 245 243 249 251 243 303 290
176 176 173 166 166 184 180 158 185 205 204 205 196 182 192 228 220 204 197 186 212 211 207 212 223 247 179 200 318 340 286 220 189 184 203 225 229 232 215 236 231 220 247
170 175 172 168 174 180 173 179 203 204 200 202 198 200 199 223 216 215 204 179 201 231 215 193 189 223 249 211 200 339 302 279 243 216 215 230 233 228 212 216 222 238 276
160 182 185 177 176 177 186 202 206 193 205 212 192 191 198 247 236 220 151 131 135 250 228 173 178 213 275 292 138 251 293 294 289 277 260 252 249 240 207 166 176 165 278
192 201 192 175 170 178 194 199 191 174 196 183 143 175 178 238 257 172 144 145 160 231 339 319 295 303 303 140 176 204 252 271 293 309 305 300 278 271 246 204 197 195 219
192 178 174 176 179 178 181 185 165 156 128 98 99 70 86 140 179 161 151 153 172 174 243 301 295 306 314 291 244 220 239 256 275 281 291 294 285 270 259 238 209 192 200
138 137 169 181 164 149 146 154 150 145 126 110 96 41 10 353 38 178 144 140 129 145 229 274 282 297 299 290 275 267 269 266 267 286 295 292 285 277 266 252 240 229 222
113 140 146 126 128 131 139 148 146 140 141 134 127 97 356 2 359 32 106 158 146 136 235 295 312 299 294 295 293 301 303 254 241 258 269 267 260 264 270 274 274 265 272
100 95 113 121 116 112 130 153 157 164 158 154 149 159 279 342 349 3 16 12 351 344 336 343 345 348 350 327 326 326 325 258 229 247 265 270 281 290 285 267 252 250 261
95 87 86 125 129 127 116 138 163 191 184 174 182 178 178 242 265 236 164 170 213 235 71 43 31 21 8 353 346 338 340 347 304 286 281 287 289 291 289 282 264 226 227
106 95 133 161 147 144 133 55 28 52 94 124 143 154 182 206 209 126 152 162 110 102 98 69 15 323 304 303 310 318 326 315 296 294 292 287 282 282 291 302 289 238 251
149 167 186 182 157 161 159 150 111 24 38 64 119 145 155 137 91 75 77 95 88 106 98 53 292 278 280 281 281 281 290 291 294 295 288 295 297 292 284 280 275 264 268
157 171 183 197 188 178 180 170 159 150 119 343 347 347 27 56 53 63 79 81 58 77 179 251 271 272 275 283 286 286 292 306 309 301 292 301 298 294 292 288 268 258 263
158 188 183 179 182 181 177 164 157 156 156 147 42 359 2 46 45 65 113 113 166 228 250 262 262 265 270 271 275 285 298 296 296 291 300 294 295 294 294 288 278 277 269
181 158 144 154 154 149 159 158 166 178 184 187 203 217 123 83 50 13 168 224 228 246 253 258 270 270 267 266 261 269 299 316 312 298 286 287 287 285 284 282 274 272 269
187 174 138 136 149 169 174 171 175 180 191 204 220 211 168 166 200 216 217 233 230 235 245 252 264 269 269 274 273 263 252 270 275 284 292 293 291 284 282 277 271 262 266
168 165 190 189 184 194 200 188 183 192 209 214 228 220 188 188 211 218 224 237 245 246 241 236 257 272 269 264 256 254 271 281 284 284 282 284 290 289 294 298 296 292 285
170 170 187 206 192 203 202 200 193 198 209 216 209 201 196 211 219 223 232 244 253 254 244 220 251 298 353 22 15 191 219 266 271 270 276 286 291 292 288 284 284 287 285
156 159 167 162 145 148 169 204 200 193 193 199 206 212 218 215 217 229 233 231 231 252 253 237 242 275 359 34 12 347 336 316 310 298 284 278 290 288 285 290 291 289 287
159 160 164 170 179 177 172 184 189 193 195 194 196 204 207 209 221 232 236 225 230 252 267 297 58 81 12 22 15 349 352 354 352 347 335 307 293 294 295 294 295 296 292
179 184 179 178 190 188 181 185 192 193 190 187 185 184 191 209 226 231 233 234 241 248 228 101 96 63 41 38 5 11 12 5 358 352 349 330 314 313 316 309 307 304 303
Height
1510 1510 1511 1512 1513 1513 1513 1514 1514 1514 1514 1514 1514 1514 1515 1515 1515 1515 1514 1514 1514 1514 1513 1513 1513 1513 1513 1513 1512 1512 1512 1512 1511 1511 1511 1511 1510 1510 1510 1510 1510 1510 1510
1508 1509 1510 1511 1511 1511 1511 1512 1512 1513 1512 1512 1513 1512 1513 1513 1513 1512 1512 1511 1511 1511 1511 1511 1510 1511 1510 1510 1510 1509 1509 1509 1509 1508 1508 1508 1508 1508 1508 1508 1508 1507 1507
1507 1508 1508 1509 1509 1509 1509 1509 1510 1510 1510 1510 1510 1510 1510 1510 1510 1510 1510 1509 1509 1509 1509 1509 1508 1508 1507 1507 1507 1507 1507 1507 1506 1506 1506 1505 1505 1505 1505 1505 1504 1504 1504
1505 1506 1506 1506 1507 1507 1507 1507 1507 1507 1508 1508 1507 1508 1508 1508 1508 1508 1508 1507 1507 1507 1507 1506 1506 1506 1505 1505 1505 1504 1504 1504 1504 1503 1503 1503 1502 1502 1502 1502 1501 1502 1501
1503 1503 1504 1504 1504 1504 1505 1505 1505 1505 1504 1505 1505 1505 1505 1505 1505 1505 1505 1505 1505 1505 1504 1504 1504 1503 1503 1502 1502 1502 1502 1501 1501 1500 1500 1500 1499 1499 1499 1499 1498 1498 1498
1500 1501 1502 1502 1503 1502 1502 1503 1502 1502 1502 1502 1502 1502 1502 1502 1503 1503 1503 1502 1503 1502 1502 1501 1501 1501 1501 1500 1500 1499 1499 1499 1498 1498 1497 1497 1497 1497 1496 1496 1495 1495 1494
1498 1499 1499 1500 1500 1501 1501 1500 1500 1500 1500 1500 1500 1500 1499 1500 1500 1500 1500 1500 1500 1499 1499 1499 1499 1499 1498 1498 1497 1497 1496 1496 1496 1495 1495 1494 1494 1494 1493 1493 1492 1492 1491
1497 1497 1497 1498 1498 1499 1499 1498 1498 1498 1498 1498 1498 1497 1497 1497 1497 1497 1497 1497 1497 1497 1497 1496 1496 1496 1496 1496 1495 1494 1494 1493 1493 1492 1492 1491 1491 1491 1491 1491 1490 1489 1489
1494 1494 1495 1496 1496 1497 1497 1497 1496 1496 1496 1496 1495 1495 1495 1495 1495 1495 1495 1495 1495 1495 1494 1493 1494 1493 1493 1493 1492 1492 1491 1491 1491 1490 1490 1489 1489 1488 1488 1488 1487 1486 1485
1493 1494 1494 1495 1495 1495 1495 1495 1495 1495 1494 1494 1494 1493 1493 1492 1493 1493 1493 1493 1492 1492 1492 1492 1491 1491 1491 1490 1489 1489 1488 1488 1488 1487 1487 1486 1486 1485 1485 1485 1484 1483 1482
1492 1493 1493 1493 1493 1493 1493 1494 1494 1494 1493 1493 1492 1491 1491 1491 1491 1491 1491 1490 1490 1490 1489 1489 1489 1488 1488 1487 1487 1486 1486 1486 1485 1484 1484 1483 1482 1482 1482 1481 1481 1481 1480
1491 1491 1491 1491 1491 1491 1492 1492 1493 1492 1492 1491 1491 1490 1489 1489 1489 1489 1489 1488 1488 1488 1487 1487 1487 1486 1486 1485 1484 1484 1483 1483 1482 1481 1481 1480 1479 1478 1478 1478 1478 1477 1477
1490 1490 1490 1490 1490 1490 1490 1491 1491 1491 1490 1489 1489 1489 1488 1488 1487 1487 1487 1486 1486 1485 1485 1485 1484 1484 1483 1483 1482 1481 1480 1479 1479 1478 1477 1476 1476 1475 1475 1474 1474 1473 1473
1488 1489 1489 1489 1489 1489 1489 1489 1489 1488 1488 1488 1488 1487 1487 1486 1486 1485 1484 1484 1483 1483 1483 1482 1482 1481 1481 1480 1479 1478 1477 1477 1476 1475 1474 1473 1473 1472 1471 1470 1469 1469 1468
1486 1487 1487 1487 1487 1487 1487 1488 1487 1487 1487 1487 1486 1486 1485 1485 1484 1484 1483 1482 1482 1481 1481 1480 1479 1479 1478 1477 1476 1476 1475 1474 1473 1472 1471 1470 1469 1468 1467 1466 1465 1465 1464
1485 1485 1486 1486 1486 1486 1486 1486 1486 1486 1486 1486 1486 1485 1485 1485 1484 1483 1482 1481 1480 1480 1479 1477 1477 1477 1476 1475 1474 1473 1472 1471 1470 1469 1468 1467 1465 1465 1464 1463 1462 1461 1460
1484 1484 1484 1484 1484 1484 1484 1484 1484 1485 1485 1484 1484 1483 1483 1483 1482 1481 1480 1479 1479 1478 1476 1475 1475 1475 1474 1473 1472 1471 1469 1468 1467 1466 1465 1464 1463 1462 1461 1460 1459 1458 1457
1483 1483 1482 1482 1482 1482 1482 1482 1482 1482 1482 1482 1483 1482 1482 1481 1480 1480 1479 1478 1476 1475 1474 1473 1473 1472 1471 1470 1469 1468 1466 1465 1464 1463 1462 1461 1460 1458 1457 1456 1455 1454 1453
1481 1480 1480 1480 1480 1480 1481 1481 1480 1480 1481 1481 1481 1480 1480 1479 1479 1478 1477 1475 1474 1473 1472 1471 1470 1470 1469 1468 1466 1465 1464 1462 1461 1460 1459 1458 1457 1455 1454 1453 1451 1450 1449
1479 1479 1479 1479 1479 1479 1479 1479 1479 1479 1479 1478 1478 1478 1478 1478 1477 1476 1475 1474 1472 1471 1470 1469 1468 1468 1466 1465 1464 1462 1461 1459 1458 1457 1456 1455 1454 1452 1451 1449 1448 1446 1445
1477 1477 1477 1477 1477 1477 1477 1477 1477 1477 1477 1477 1477 1477 1476 1475 1475 1474 1473 1472 1471 1470 1469 1467 1466 1465 1464 1462 1461 1460 1458 1457 1456 1454 1453 1451 1450 1449 1447 1446 1444 1443 1442
1474 1474 1475 1475 1475 1476 1476 1476 1476 1476 1475 1475 1475 1475 1474 1474 1473 1472 1471 1470 1469 1468 1467 1465 1464 1462 1461 1460 1458 1457 1456 1454 1453 1452 1450 1449 1447 1446 1444 1442 1441 1440 1439
1473 1473 1473 1474 1474 1474 1474 1474 1474 1474 1474 1474 1473 1473 1472 1472 1471 1470 1469 1468 1467 1466 1465 1463 1462 1460 1459 1457 1456 1455 1454 1452 1451 1450 1448 1446 1445 1443 1441 1439 1438 1436 1435
1472 1471 1471 1472 1472 1472 1473 1473 1473 1473 1472 1472 1472 1471 1471 1470 1469 1468 1467 1466 1465 1464 1463 1461 1460 1458 1457 1455 1454 1453 1452 1450 1449 1447 1446 1444 1442 1440 1438 1437 1435 1433 1432
1470 1470 1470 1470 1471 1471 1471 1471 1471 1471 1471 1471 1470 1469 1468 1468 1467 1466 1465 1464 1463 1461 1460 1459 1457 1456 1455 1453 1452 1451 1449 1448 1446 1445 1443 1441 1439 1437 1435 1433 1432 1430 1428
1469 1469 1469 1469 1470 1470 1470 1469 1469 1469 1469 1469 1468 1467 1467 1466 1465 1464 1462 1461 1460 1459 1457 1456 1455 1454 1452 1451 1449 1448 1446 1445 1443 1441 1439 1438 1436 1434 1432 1430 1428 1426 1424